Tracking 18840 objects as of 18-November-2017
HD Live streaming from Space Station
objects crossing your sky now

ORBCOMM FM 107

Track ORBCOMM FM 107 now!
10-day predictions
ORBCOMM FM 107 is classified as:


NORAD ID: 40087
Int'l Code: 2014-040B
Perigee: 715.7 km
Apogee: 721.4 km
Inclination: 47.0 °
Period: 99.0 minutes
Semi major axis: 7089 km
RCS: Unknown
Launch date: July 14, 2014
Source: United States (US)
Launch site: AIR FORCE EASTERN TEST RANGE (AFETR)
aabbcc
Your satellite tracking list
Your tracking list is empty




NASA's NSSDC Master Catalog

Two Line Element Set (TLE):
1 40087U 14040B   17321.80079563  .00000088  00000-0  59074-4 0  9995
2 40087  47.0071  73.6590 0004045 249.7447 110.3002 14.54366796177924
Source of the keplerian elements: AFSPC